Weather History for Salt Lake City, UT

Change the Weather History Date:

Thursday, June 20, 2013

  Actual Average Record
Temperature  
Mean Temperature 63 °F 71 °F  
Max Temperature 76 °F 85 °F 101 °F (1936)
Min Temperature 49 °F 58 °F 41 °F (1929)
Degree Days  
Heating Degree Days 2 1  
Month to date heating degree days 4 40  
Since 1 June heating degree days 4 40  
Since 1 July heating degree days 5460 5601  
Cooling Degree Days 0 7  
Month to date cooling degree days 180 99  
Year to date cooling degree days 250 149  
Since 1 June cooling degree days 180 99  
Growing Degree Days 12 (Base 50)    
Moisture  
Dew Point 33 °F    
Average Humidity 38    
Maximum Humidity 59    
Minimum Humidity 16    
Precipitation  
Precipitation 0.00 in 0.03 in 0.82 in (1882)
Month to date precipitation 0.00 0.79  
Year to date precipitation 6.12 9.02  
Snow  
Snow 0.00 in 0.00 in - ()
Month to date snowfall 0.0 0.0  
Since 1 July snowfall 69.9 56.2  
Snow Depth 0.00 in    
Sea Level Pressure  
Sea Level Pressure 29.86 in    
Wind  
Wind Speed 6 mph (NW)    
Max Wind Speed 14 mph    
Max Gust Speed 23 mph    
Visibility 10 miles    
Events      
T = Trace of Precipitation, MM = Missing Value Source: NWS Daily Summary

Daily Weather History Graph

Daily Weather History Graph

Search for Another Location

Airport:

Trip Planner

Search our weather history database for the weather conditions in past years. The results will help you decide how hot, cold, wet, or windy it might be!

Date:

Astronomy

Jun. 20, 2013 Rise Set
Actual Time 5:56 AM MDT 9:02 PM MDT
Civil Twilight 5:23 AM MDT 9:36 PM MDT
Nautical Twilight 4:40 AM MDT 10:18 PM MDT
Astronomical Twilight 3:49 AM MDT 11:09 PM MDT
Moon 6:08 PM MDT (6/20) 3:26 AM MDT (6/20)
Length of Visible Light 16h 13m
Length of Day
15h 06m
Waxing Gibbous, 89% of the Moon is Illuminated
Jun 20
Waxing Gibbous
Jun 23
Full
Jun 29
Last Quarter
Jul 8
New
Jul 15
First Quarter

Hourly Weather History & Observations

Time (MDT) Temp. Dew Point Humidity Pressure Visibility Wind Dir Wind Speed Gust Speed Precip Events Conditions
12:53 AM 59.0 °F 36.0 °F 42% 29.85 in 10.0 mi NNW 6.9 mph - N/A   Partly Cloudy
1:53 AM 54.0 °F 36.0 °F 51% 29.88 in 10.0 mi North 9.2 mph - N/A   Clear
2:53 AM 52.0 °F 37.0 °F 57% 29.89 in 10.0 mi North 6.9 mph - N/A   Clear
3:53 AM 53.1 °F 36.0 °F 52% 29.88 in 10.0 mi Calm Calm - N/A   Partly Cloudy
4:53 AM 51.1 °F 36.0 °F 56% 29.90 in 10.0 mi Calm Calm - N/A   Partly Cloudy
5:53 AM 51.1 °F 37.0 °F 59% 29.91 in 10.0 mi Calm Calm - N/A   Partly Cloudy
6:53 AM 52.0 °F 37.9 °F 59% 29.93 in 10.0 mi Calm Calm - N/A   Partly Cloudy
7:53 AM 55.9 °F 36.0 °F 47% 29.93 in 10.0 mi WSW 3.5 mph - N/A   Scattered Clouds
8:53 AM 57.9 °F 37.0 °F 46% 29.93 in 10.0 mi Variable 3.5 mph - N/A   Scattered Clouds
9:53 AM 62.1 °F 35.1 °F 37% 29.92 in 10.0 mi Variable 3.5 mph - N/A   Scattered Clouds
10:53 AM 66.0 °F 30.9 °F 27% 29.91 in 10.0 mi NW 9.2 mph - N/A   Scattered Clouds
11:53 AM 69.1 °F 28.9 °F 22% 29.90 in 10.0 mi NNW 11.5 mph 16.1 mph N/A   Scattered Clouds
12:53 PM 71.1 °F 24.1 °F 17% 29.88 in 10.0 mi NW 6.9 mph - N/A   Scattered Clouds
1:53 PM 73.0 °F 28.0 °F 19% 29.87 in 10.0 mi NNW 8.1 mph - N/A   Scattered Clouds
2:53 PM 73.0 °F 28.9 °F 20% 29.86 in 10.0 mi NNW 8.1 mph - N/A   Scattered Clouds
3:53 PM 73.9 °F 28.0 °F 18% 29.84 in 10.0 mi NW 9.2 mph - N/A   Partly Cloudy
4:53 PM 75.0 °F 28.0 °F 18% 29.84 in 10.0 mi NW 9.2 mph - N/A   Partly Cloudy
5:53 PM 73.9 °F 28.0 °F 18% 29.83 in 10.0 mi NW 11.5 mph - N/A   Partly Cloudy
6:53 PM 73.9 °F 28.0 °F 18% 29.82 in 10.0 mi NNW 8.1 mph - N/A   Clear
7:53 PM 73.0 °F 28.0 °F 19% 29.80 in 10.0 mi NNW 9.2 mph - N/A   Clear
8:53 PM 71.1 °F 30.9 °F 23% 29.78 in 10.0 mi NW 9.2 mph - N/A   Clear
9:53 PM 66.9 °F 37.9 °F 34% 29.78 in 10.0 mi NNW 8.1 mph - N/A   Clear
10:53 PM 61.0 °F 39.9 °F 46% 29.79 in 10.0 mi SW 6.9 mph - N/A   Clear
11:53 PM 62.1 °F 35.1 °F 37% 29.78 in 10.0 mi SE 8.1 mph - N/A   Clear